Weather History for Coolangatta, QU

Change the Weather History Date:

Thursday, October 10, 2013

  Actual Average (YBBN) Record (YBBN)
Temperature  
Mean Temperature 70 °F -  
Max Temperature 78 °F 75 °F 80 °F (2012)
Min Temperature 61 °F 58 °F 51 °F (1996)
Cooling Degree Days 4    
Growing Degree Days 20 (Base 50)    
Moisture  
Dew Point 59 °F    
Average Humidity 68    
Maximum Humidity 83    
Minimum Humidity 43    
Precipitation  
Precipitation 0.00 in - - ()
Sea Level Pressure  
Sea Level Pressure 30.00 in    
Wind  
Wind Speed 11 mph ()    
Max Wind Speed 23 mph    
Max Gust Speed -    
Visibility 6.2 miles    
Events      
Averages and records for this station are not official NWS values.
T = Trace of Precipitation, MM = Missing Value Source: Averaged Metar Reports

Daily Weather History Graph

Daily Weather History Graph

Search for Another Location

Airport:

Trip Planner

Search our weather history database for the weather conditions in past years. The results will help you decide how hot, cold, wet, or windy it might be!

Date:

Astronomy

Oct. 10, 2013 Rise Set
Actual Time 5:15 AM EST 5:51 PM EST
Civil Twilight 4:51 AM EST 6:15 PM EST
Nautical Twilight 4:23 AM EST 6:43 PM EST
Astronomical Twilight 3:55 AM EST 7:11 PM EST
Moon 9:07 AM EST (10/10) 11:05 PM EST (10/10)
Length of Visible Light 13h 23m
Length of Day
12h 36m
Waxing Crescent, 29% of the Moon is Illuminated
Oct 10
Waxing Crescent
Oct 12
First Quarter
Oct 19
Full
Oct 27
Last Quarter
Nov 3
New

Hourly Weather History & Observations

Time (EST) Temp. Dew Point Humidity Pressure Visibility Wind Dir Wind Speed Gust Speed Precip Events Conditions
12:00 AM 63 °F 55 °F 69% 30.12 in - NW 8.1 mph - -  
12:00 AM 62.6 °F 55.4 °F 77% 30.12 in 6.2 mi NW 8.1 mph - N/A   Unknown
12:30 AM 62.6 °F 55.4 °F 77% 30.12 in 6.2 mi NW 6.9 mph - N/A   Unknown
1:00 AM 62.6 °F 55.4 °F 77% 30.09 in 6.2 mi NW 8.1 mph - N/A   Unknown
1:30 AM 62.6 °F 55.4 °F 77% 30.09 in 6.2 mi NW 6.9 mph - N/A   Unknown
2:00 AM 62.6 °F 55.4 °F 77% 30.09 in 6.2 mi NW 9.2 mph - N/A   Unknown
2:30 AM 62.6 °F 55.4 °F 77% 30.09 in 6.2 mi NW 8.1 mph - N/A   Unknown
3:00 AM 63 °F 56 °F 70% 30.09 in - NW 8.1 mph - -  
3:00 AM 62.6 °F 55.4 °F 77% 30.09 in 6.2 mi NW 8.1 mph - N/A   Unknown
3:30 AM 62.6 °F 55.4 °F 77% 30.06 in 6.2 mi NW 9.2 mph - N/A   Unknown
4:00 AM 62.6 °F 55.4 °F 77% 30.06 in 6.2 mi NW 8.1 mph - N/A   Unknown
4:30 AM 62.6 °F 55.4 °F 77% 30.09 in 6.2 mi NW 8.1 mph - N/A   Unknown
5:00 AM 62.6 °F 55.4 °F 77% 30.09 in 6.2 mi NNW 9.2 mph - N/A   Unknown
5:30 AM 64.4 °F 55.4 °F 73% 30.09 in 6.2 mi NW 9.2 mph - N/A   Unknown
6:00 AM 65 °F 55 °F 62% 30.10 in - NW 9.2 mph - -  
6:00 AM 64.4 °F 55.4 °F 73% 30.09 in 6.2 mi NW 9.2 mph - N/A   Unknown
6:30 AM 66.2 °F 55.4 °F 68% 30.09 in 6.2 mi NW 9.2 mph - N/A   Unknown
7:00 AM 68.0 °F 55.4 °F 64% 30.09 in 6.2 mi NNW 12.7 mph - N/A   Unknown
7:30 AM 69.8 °F 55.4 °F 60% 30.09 in 6.2 mi NNW 12.7 mph - N/A   Unknown
8:00 AM 71.6 °F 55.4 °F 57% 30.09 in 6.2 mi NW 17.3 mph - N/A   Unknown
8:30 AM 73.4 °F 55.4 °F 53% 30.09 in 6.2 mi NNW 17.3 mph - N/A   Unknown
9:00 AM 74 °F 56 °F 43% 30.09 in - NNW 17.3 mph - -  
9:00 AM 75.2 °F 55.4 °F 50% 30.09 in 6.2 mi NNW 17.3 mph - N/A   Unknown
9:30 AM 75.2 °F 55.4 °F 50% 30.06 in 6.2 mi NW 16.1 mph - N/A   Unknown
10:00 AM 77.0 °F 55.4 °F 47% 30.06 in 6.2 mi NNW 13.8 mph - N/A   Unknown
10:30 AM 78.8 °F 57.2 °F 47% 30.04 in 6.2 mi NNW 17.3 mph - N/A   Unknown
11:00 AM 77.0 °F 59.0 °F 54% 30.04 in 6.2 mi North 19.6 mph - N/A   Unknown
11:30 AM 77.0 °F 60.8 °F 57% 30.01 in 6.2 mi North 21.9 mph - N/A   Unknown
12:00 PM 77 °F 60 °F 46% 30.01 in - North 23.0 mph - -  
12:00 PM 77.0 °F 60.8 °F 57% 30.01 in 6.2 mi North 23.0 mph - N/A   Unknown
12:30 PM 78.8 °F 60.8 °F 54% 29.98 in 6.2 mi North 21.9 mph - N/A   Unknown
1:00 PM 78.8 °F 60.8 °F 54% 29.95 in 6.2 mi North 21.9 mph - N/A   Unknown
1:30 PM 78.8 °F 62.6 °F 57% 29.95 in 6.2 mi North 21.9 mph - N/A   Unknown
2:00 PM 75.2 °F 62.6 °F 65% 29.92 in 6.2 mi North 21.9 mph - N/A   Unknown
2:30 PM 77.0 °F 64.4 °F 65% 29.92 in 6.2 mi North 21.9 mph - N/A   Unknown
3:00 PM 76 °F 65 °F 60% 29.91 in - North 23.0 mph - -  
3:00 PM 75.2 °F 64.4 °F 69% 29.89 in 6.2 mi North 23.0 mph - N/A   Unknown
3:30 PM 75.2 °F 64.4 °F 69% 29.89 in 6.2 mi North 21.9 mph - N/A   Unknown
4:00 PM 75.2 °F 64.4 °F 69% 29.89 in 6.2 mi North 20.7 mph - N/A   Unknown
4:30 PM 73.4 °F 64.4 °F 73% 29.89 in 6.2 mi North 20.7 mph - N/A   Unknown
5:00 PM 73.4 °F 64.4 °F 73% 29.89 in 6.2 mi North 18.4 mph - N/A   Unknown
5:30 PM 71.6 °F 64.4 °F 78% 29.89 in 6.2 mi North 16.1 mph - N/A   Unknown
6:00 PM 71 °F 64 °F 74% 29.91 in - North 16.1 mph - -  
6:00 PM 71.6 °F 64.4 °F 78% 29.89 in 6.2 mi North 16.1 mph - N/A   Unknown
6:30 PM 71.6 °F 64.4 °F 78% 29.89 in 6.2 mi North 16.1 mph - N/A   Unknown
7:00 PM 69.8 °F 64.4 °F 83% 29.92 in 6.2 mi North 12.7 mph - N/A   Unknown
7:30 PM 69.8 °F 62.6 °F 78% 29.92 in 6.2 mi NNW 10.4 mph - N/A   Unknown
8:00 PM 69.8 °F 60.8 °F 73% 29.92 in 6.2 mi NNW 8.1 mph - N/A   Unknown
8:30 PM 69.8 °F 60.8 °F 73% 29.92 in 6.2 mi NNW 9.2 mph - N/A   Unknown
9:00 PM 70 °F 62 °F 70% 29.93 in - NNW 9.2 mph - -  
9:00 PM 69.8 °F 62.6 °F 78% 29.92 in 6.2 mi NNW 9.2 mph - N/A   Unknown
9:30 PM 69.8 °F 62.6 °F 78% 29.92 in 6.2 mi NNW 8.1 mph - N/A   Unknown
10:00 PM 69.8 °F 60.8 °F 73% 29.89 in 6.2 mi NNW 8.1 mph - N/A   Unknown
10:30 PM 69.8 °F 60.8 °F 73% 29.89 in 6.2 mi NNW 11.5 mph - N/A   Unknown
11:00 PM 69.8 °F 60.8 °F 73% 29.89 in 6.2 mi North 15.0 mph - N/A   Unknown
11:30 PM 69.8 °F 60.8 °F 73% 29.89 in 6.2 mi NNW 9.2 mph - N/A   Unknown